Skip Page Navigation
NASA JPL Caltech
NASA Logo - Jet Propulsion Laboratory + View the NASA Portal
+ Center for Near-Earth Object Studies
JPL Home Earth Solar System Stars & Galaxies Technology
JPL Solar System Dynamics
BODIES ORBITS EPHEMERIDES TOOLS PHYSICAL DATA DISCOVERY FAQ SITE MAP
JPL Small-Body Database Browser
Search: [ help ]  
437371 (2013 VO9)
Classification: Inner Main-belt Asteroid          SPK-ID: 2437371
Ephemeris | Orbit Diagram | Orbital Elements | Mission Design | Physical Parameters | Discovery Circumstances ]

[ show orbit diagram ]
Orbital Elements at Epoch 2459000.5 (2020-May-31.0) TDB
Reference: JPL 12 (heliocentric ecliptic J2000)
 Element Value Uncertainty (1-sigma)   Units 
e .08594640583511971 7.3274e-08  
a 1.89122449932354 1.7864e-08 au
q 1.728680550979358 1.3814e-07 au
i 22.74225361429641 1.0032e-05 deg
node 40.44696202857387 1.3578e-05 deg
peri 319.905216753442 7.9766e-05 deg
M 226.3149063392571 8.8577e-05 deg
tp 2459353.271538018357
(2021-May-18.77153802)
0.00023741 TDB
period 949.9769212033102
2.60
1.346e-05
3.685e-08
d
yr
n .3789565745913044 5.3694e-09 deg/d
Q 2.053768447667722 1.94e-08 au
  Orbit Determination Parameters
   # obs. used (total)      126  
   data-arc span      5943 days (16.27 yr)  
   first obs. used      2004-02-16  
   last obs. used      2020-05-25  
   planetary ephem.      DE431  
   SB-pert. ephem.      SB431-N16  
   condition code      0  
   norm. resid. RMS      .59598  
   source      ORB  
   producer      Otto Matic  
   solution date      2020-Nov-12 09:38:53  

Additional Information
 Earth MOID = .757818 au 
 Jupiter MOID = 3.21774 au 
 T_jup = 3.859 
[ hide covariance matrix ]
Orbital Elements at Epoch 2457935.5 (2017-Jul-01.0) TDB
Reference: JPL 12 (heliocentric ecliptic J2000)
 Element Value Uncertainty (1-sigma)   Units 
e .08579219808427627 7.3242e-08  
q 1.729244458001181 1.3805e-07 au
tp 2458402.873218175917
(2018-Oct-11.37321818)
0.00022785 TDB
node 40.45425834680459 1.3577e-05 deg
peri 319.7607106425894 7.983e-05 deg
i 22.74246697872569 1.0032e-05 deg
  Orbit Determination Parameters
   # obs. used (total)      126  
   data-arc span      5943 days (16.27 yr)  
   first obs. used      2004-02-16  
   last obs. used      2020-05-25  
   planetary ephem.      DE431  
   SB-pert. ephem.      SB431-N16  
   condition code      0  
   norm. resid. RMS      .59598  
   source      ORB  
   producer      Otto Matic  
   solution date      2020-Nov-12 09:38:53  

Additional Information
 Jupiter MOID = 3.21774 au 
 T_jup = 3.859 
Orbit Covariance (6×6)
  e q tp node peri i
e 5.364414403447299E-15 -1.004030463394907E-14 4.14475175999748E-12 -7.002126353379511E-14 1.66928917652004E-12 4.221482614038795E-14
q -1.004030463394907E-14 1.9058423584175E-14 -5.169716318188672E-12 1.115578079484578E-13 -2.264118875983842E-12 -7.768961030044188E-14
tp 4.14475175999748E-12 -5.169716318188672E-12 5.191465500502532E-8 -3.861308611553984E-10 1.791693223020994E-8 4.955621106171971E-11
node -7.002126353379511E-14 1.115578079484578E-13 -3.861308611553984E-10 1.843299804737787E-10 -3.007283073198882E-10 4.488071760358061E-12
peri 1.66928917652004E-12 -2.264118875983842E-12 1.791693223020994E-8 -3.007283073198882E-10 6.372862300393439E-9 1.359804410606932E-11
i 4.221482614038795E-14 -7.768961030044188E-14 4.955621106171971E-11 4.488071760358061E-12 1.359804410606932E-11 1.006463531393908E-10

Ephemeris | Orbit Diagram | Orbital Elements | Mission Design | Physical Parameters | Discovery Circumstances ]

Physical Parameter Table
Parameter Symbol Value Units Sigma Reference Notes
absolute magnitude H 17.8   n/a MPO397544  

437371 (2013 VO9)          Discovered 2005-Sep-06 by Siding Spring Survey at Siding Spring
Reference: Last Updated: 2015-06-04
Ephemeris | Orbit Diagram | Orbital Elements | Mission Design | Physical Parameters | Discovery Circumstances ]
ABOUT SSD CREDITS/AWARDS PRIVACY/COPYRIGHT GLOSSARY LINKS
FirstGov 2021-Jan-25 02:24 UT
(server date/time)  
NASA Home Page
Site Manager:   Ryan S. Park
Webmaster  Alan B. Chamberlin